[[[{"header":{"parameterUnit":"kt","parameterCategory":2,"dx":1,"dy":1,"la1":30.253999710083008,"la2":30.299108505249023,"lo1":-89.0895004272461,"lo2":-89.04439544677734,"nx":28,"ny":28,"refTime":"2022-10-15T21:00:00:Z","depth":0,"parameterNumber":1,"parameterNumberName":"U-component_of_WINDS"},"data":[-3.1442,-3.1523,-3.1528,-3.1623,-3.1643,-3.1709,-3.1733,-3.1765,-3.1791,-3.1869,-3.1914,-3.1925,-3.1952,-3.2006,-3.2054,-3.2057,-3.2078,-3.2104,-3.2104,-3.1983,-3.1966,-3.195,-3.1932,-3.2109,-3.2109,-3.223,-3.2232,-3.2232,-3.1355,-3.1377,-3.1428,-3.1481,-3.1524,-3.1502,-3.1541,-3.1579,-3.1638,-3.167,-3.1714,-3.1781,-3.1835,-3.1852,-3.1903,-3.1941,-3.1933,-3.1955,-3.1952,-3.1957,-3.1827,-3.1808,-3.1961,-3.1961,-3.1961,-3.196,-3.196,-3.196,-3.1199,-3.1248,-3.1282,-3.1338,-3.1365,-3.14,-3.1446,-3.1459,-3.1508,-3.1563,-3.1556,-3.1622,-3.1654,-3.1716,-3.1737,-3.1788,-3.1764,-3.1788,-3.1795,-3.1801,-3.1809,-3.1637,-3.1796,-3.1796,-3.1795,-3.1795,-3.1794,0,-3.1087,-3.1088,-3.1136,-3.1187,-3.1227,-3.1266,-3.1301,-3.133,-3.1329,-3.1369,-3.1428,-3.1461,-3.1528,-3.1582,-3.163,-3.1647,-3.1626,-3.1623,-3.1641,-3.1646,-3.1646,-3.1649,-3.1438,-3.1619,-3.1617,-3.1616,-3.1615,-3.1615,-3.0932,-3.0986,-3.1023,-3.1057,-3.1077,-3.1131,-3.1163,-3.1159,-3.1193,-3.1235,-3.1277,-3.1331,-3.1375,-3.1465,-3.1478,-3.1527,-3.1517,-3.1586,-3.1524,-3.1528,-3.152,-3.1518,-3.1524,-3.1599,-3.1601,-3.1602,-3.1604,0,-3.0844,-3.085,-3.0935,-3.0965,-3.0974,-3.1032,-3.1057,-3.1103,-3.111,-3.1175,-3.119,-3.1199,-3.1255,-3.1256,-3.1319,-3.1318,-3.1413,-3.1402,-3.1403,-3.1402,-3.1465,-3.146,-3.1666,-3.1694,-3.1509,-3.1511,-3.1512,0,-3.0714,-3.0786,-3.079,-3.0839,-3.0918,-3.0911,-3.099,-3.1003,-3.1029,-3.108,-3.1057,-3.1105,-3.1098,-3.1147,-3.1145,-3.1222,-3.1233,-3.1237,-3.1236,-3.124,-3.124,-3.1259,-3.1251,-3.1229,-3.1228,-3.1227,-3.1226,0,-3.0578,-3.0662,-3.0742,-3.0762,-3.08,-3.0837,-3.0854,-3.0883,-3.0915,-3.0955,-3.0975,-3.1021,-3.1047,-3.1084,-3.1081,-3.1039,-3.1175,-3.1116,-3.1179,-3.1179,-3.121,-3.1208,-3.139,-3.1225,-3.1224,-3.1224,-3.1224,0,-3.0474,-3.0516,-3.063,-3.0661,-3.0683,-3.0735,-3.0781,-3.0825,-3.0857,-3.086,-3.0891,-3.0875,-3.0941,-3.0884,-3.0975,-3.0922,-3.0948,-3.0958,-3.0962,-3.0969,-3.0905,-3.101,-3.1182,-3.1201,-3.0975,-3.0973,-3.0971,0,-3.0318,-3.0433,-3.0428,-3.0536,-3.0589,-3.056,-3.0617,-3.0646,-3.0654,-3.07,-3.0707,-3.0759,-3.0716,-3.0732,-3.0777,-3.0787,-3.0856,-3.0778,-3.0845,-3.0847,-3.084,-3.0997,-3.1024,-3.1144,-3.0944,-3.0947,-3.0949,0,-3.0197,-3.0242,-3.0262,-3.0284,-3.0321,-3.0365,-3.043,-3.048,-3.0511,-3.0544,-3.0599,-3.067,-3.0641,-3.0668,-3.0659,-3.0706,-3.0809,-3.0668,-3.0669,-3.0695,-3.093,-3.0955,-3.0975,-3.0793,-3.0796,-3.0799,-3.0928,0,-3.0043,-3.01,-3.0152,-3.0201,-3.0234,-3.03,-3.0301,-3.0336,-3.0326,-3.0332,-3.0411,-3.0432,-3.0482,-3.0503,-3.0492,-3.0598,-3.0581,-3.0549,-3.0494,-3.0596,-3.0639,-3.0656,-3.043,-3.0429,-3.0427,-3.0426,0,0,-2.9893,-2.9975,-2.9966,-3.0028,-3.0056,-3.0024,-3.0095,-3.0118,-3.0165,-3.0185,-3.0154,-3.0258,-3.0276,-3.0372,-3.0404,-3.0423,-3.0442,-3.0406,-3.0547,-3.056,-3.0573,-3.0618,-3.0636,-3.0424,-3.0423,-3.0423,-3.0422,0,-2.9837,-2.9858,-2.9928,-2.9952,-2.9986,-2.9989,-3.0006,-3.0034,-3.0041,-3.0117,-3.0089,-3.0136,-3.0218,-3.0242,-3.0265,-3.0394,-3.037,-3.0409,-3.0479,-3.0533,-3.0548,-3.0562,-3.061,-3.0627,-3.0419,-3.0419,-3.0419,0,-2.972,-2.9741,-2.9775,-2.9835,-2.9857,-2.9911,-2.9854,-2.9913,-2.9953,-2.9913,-2.999,-3.0001,-3.0033,-3.0122,-3.0162,-3.0135,-3.0305,-3.025,-3.0259,-3.0263,-3.0315,-3.0333,-3.035,-3.0135,-3.0134,-3.0133,0,0,-2.9671,-2.9724,-2.9744,-2.9823,-2.9839,-2.9844,-2.9872,-2.9864,-2.9893,-2.9905,-2.9919,-2.9949,-2.9996,-3.0028,-3.0072,-3.0169,-3.0176,-3.0215,-3.0228,-3.0239,-3.025,-3.0305,-3.0323,-3.0129,-3.0129,-3.0129,0,0,-2.9648,-2.9675,-2.9658,-2.9751,-2.978,-2.9804,-2.9853,-2.9833,-2.9873,-2.9865,-2.9852,-2.986,-2.9943,-2.9955,-2.9906,-3.0052,-2.9998,-3.0009,-3.0042,-3.0058,-3.0072,-3.0068,-2.9849,0,0,0,0,0,-2.9591,-2.9671,-2.9656,-2.9672,-2.9747,-2.9813,-2.9822,-2.9814,-2.9777,-2.9816,-2.9825,-2.9796,-2.9926,-2.9882,-2.9897,-2.9953,-3.0081,-3.009,-3.0098,-3.0162,-3.018,-3.0195,0,0,0,0,0,0,-2.9597,-2.9616,-2.9654,-2.9682,-2.9699,-2.981,-2.9744,-2.9744,-2.9772,-2.9766,-2.9795,-2.9797,-2.9791,-2.9874,-2.9888,-2.994,-2.9844,-3.0085,-3.0092,-3.0098,-3.0168,-3.0183,-3.0195,0,0,0,0,0,-2.9601,-2.9617,-2.974,-2.9681,-2.9695,-2.9704,-2.9741,-2.9741,-2.9762,-2.9776,-2.9776,-2.9754,-2.9792,-2.9803,-2.9882,-2.9934,-2.9835,-2.984,-3.0089,-3.0095,-3.01,-3.0175,0,0,0,0,0,0,-2.9605,-2.9616,-2.9742,-2.9746,-2.9649,-2.9698,-2.9705,-2.9738,-2.977,-2.9771,-2.9733,-2.9727,-2.9795,-2.9803,-2.9811,-2.9933,-2.9827,-2.9832,-2.9836,-3.0094,-3.0098,-3.0102,0,0,0,0,0,0,-2.9608,-2.962,-2.9744,-2.9705,-2.9705,-2.9692,-2.9699,-2.9763,-2.977,-2.9725,-2.9721,-2.973,-2.9781,-2.9803,-2.9809,-2.9911,-2.9821,-2.9826,-2.983,-2.9832,-3.0097,-3.0101,0,0,0,0,0,0,-2.9613,-2.9623,-2.9704,-2.9704,-2.9703,-2.9749,-2.9749,-2.9826,-2.9738,-2.9724,-2.973,-2.9726,-2.9782,-2.9789,-2.9808,-2.9907,-2.991,-2.9821,-2.9825,-2.9827,-2.9829,0,0,0,0,0,0,0,-2.9617,-2.955,-2.9718,-2.9703,-2.9702,-2.9785,-2.9786,-2.9787,-2.9737,-2.9734,-2.9731,-2.9728,-2.9792,-2.9798,-2.9804,-2.9904,0,0,-2.9821,-2.9823,0,0,0,0,0,0,0,0,-2.9545,-2.9549,-2.9718,-2.9719,-2.972,-2.9785,-2.9786,-2.9787,-2.9737,-2.9734,-2.9731,-2.9729,-2.9794,-2.9798,-2.9803,0,0,0,0,0,0,0,0,0,0,0,0,0,0,0,-2.9718,-2.9719,0,-2.9785,-2.9786,-2.9786,-2.9736,-2.9734,-2.9732,-2.973,-2.9795,-2.9799,-2.9803,0,0,0,0,0,0,0,0,0,0,0,0,0,0,0,0,0,0,0,0,0,0,0,0,0,0,0,0,0,0,0,0,0,0,0,0,0,0,0,0,0,0,0,0,0,0,0,0,0,0,0,0,0,0,0,0,0,0,0,0,0,0,0,0,0,0,0,0,0]}],[{"header":{"parameterUnit":"kt","parameterCategory":2,"dx":1,"dy":1,"la1":30.253999710083008,"la2":30.299108505249023,"lo1":-89.0895004272461,"lo2":-89.04439544677734,"nx":28,"ny":28,"refTime":"2022-10-15T21:00:00:Z","depth":0,"parameterNumber":2,"parameterNumberName":"V-component_of_WINDS"},"data":[-0.7529,-0.7527,-0.7571,-0.7589,-0.7632,-0.7651,-0.7672,-0.7704,-0.7741,-0.7769,-0.7793,-0.7838,-0.7893,-0.7932,-0.796,-0.7979,-0.7987,-0.7951,-0.798,-0.8098,-0.8118,-0.8136,-0.8139,-0.7953,-0.7953,-0.785,-0.7849,-0.7848,-0.7603,-0.7646,-0.7669,-0.7722,-0.7742,-0.7802,-0.785,-0.7862,-0.7878,-0.7925,-0.7952,-0.7981,-0.801,-0.808,-0.8115,-0.8113,-0.8144,-0.8119,-0.8119,-0.8126,-0.8255,-0.8257,-0.8093,-0.8093,-0.8094,-0.8094,-0.8094,-0.8094,-0.7751,-0.7748,-0.7808,-0.7835,-0.7874,-0.791,-0.7915,-0.7972,-0.7997,-0.8041,-0.8092,-0.8112,-0.8168,-0.8235,-0.827,-0.8285,-0.8321,-0.8309,-0.8306,-0.83,-0.8287,-0.8421,-0.8294,-0.8295,-0.8296,-0.8296,-0.8297,0,-0.7872,-0.791,-0.7938,-0.7978,-0.8001,-0.8037,-0.8078,-0.8083,-0.8183,-0.8199,-0.8226,-0.825,-0.8296,-0.8326,-0.8372,-0.8412,-0.8476,-0.849,-0.8481,-0.8454,-0.8422,-0.8435,-0.864,-0.8493,-0.8495,-0.8497,-0.8498,-0.8498,-0.8021,-0.8016,-0.8103,-0.8115,-0.8151,-0.8171,-0.8193,-0.8282,-0.8301,-0.8365,-0.8359,-0.8392,-0.8423,-0.846,-0.8529,-0.8564,-0.8596,-0.8534,-0.8602,-0.8575,-0.8591,-0.8589,-0.8588,-0.8518,-0.8516,-0.8514,-0.8512,0,-0.81,-0.8178,-0.8185,-0.8274,-0.8296,-0.8285,-0.836,-0.8363,-0.8421,-0.8432,-0.844,-0.8531,-0.8557,-0.8637,-0.8685,-0.8725,-0.8703,-0.8736,-0.8683,-0.8693,-0.8643,-0.8645,-0.8475,-0.8456,-0.8653,-0.8651,-0.865,0,-0.8257,-0.8247,-0.8364,-0.8364,-0.8355,-0.8448,-0.8436,-0.8485,-0.8539,-0.8549,-0.8638,-0.8645,-0.8749,-0.8767,-0.8828,-0.8826,-0.8836,-0.8866,-0.8882,-0.8857,-0.8853,-0.8868,-0.8875,-0.8923,-0.8924,-0.8925,-0.8926,0,-0.837,-0.8425,-0.8426,-0.8451,-0.8547,-0.8545,-0.8585,-0.8647,-0.8669,-0.871,-0.8725,-0.8766,-0.8788,-0.8818,-0.8896,-0.8938,-0.8897,-0.8972,-0.8927,-0.8925,-0.8913,-0.8913,-0.8743,-0.8927,-0.8927,-0.8927,-0.8927,0,-0.851,-0.8551,-0.8543,-0.8625,-0.8635,-0.8637,-0.8685,-0.8706,-0.8765,-0.8804,-0.8838,-0.8908,-0.8916,-0.8983,-0.8995,-0.9027,-0.9043,-0.9075,-0.9073,-0.9077,-0.915,-0.904,-0.8873,-0.8857,-0.9081,-0.9082,-0.9084,0,-0.8616,-0.8631,-0.8712,-0.8703,-0.8721,-0.882,-0.8824,-0.8875,-0.8929,-0.8951,-0.9011,-0.9036,-0.9105,-0.9124,-0.9119,-0.9181,-0.9139,-0.919,-0.9217,-0.9217,-0.9195,-0.9043,-0.8996,-0.8901,-0.9101,-0.91,-0.9098,0,-0.8709,-0.883,-0.8823,-0.8855,-0.8941,-0.8958,-0.8963,-0.901,-0.902,-0.9071,-0.9075,-0.9116,-0.9168,-0.9201,-0.9264,-0.9254,-0.917,-0.9312,-0.9315,-0.9281,-0.9119,-0.9074,-0.9058,-0.9214,-0.9212,-0.921,-0.9112,0,-0.8896,-0.8917,-0.8903,-0.8975,-0.9002,-0.9004,-0.9094,-0.911,-0.9167,-0.9225,-0.9237,-0.9304,-0.9353,-0.9359,-0.9416,-0.937,-0.939,-0.9447,-0.9518,-0.9419,-0.9388,-0.9376,-0.9555,-0.9558,-0.956,-0.9562,0,0,-0.8976,-0.9009,-0.9101,-0.9111,-0.9139,-0.9245,-0.9238,-0.9279,-0.9358,-0.9374,-0.9415,-0.9482,-0.9536,-0.954,-0.9516,-0.9538,-0.9536,-0.957,-0.9466,-0.9455,-0.9445,-0.9411,-0.9397,-0.9566,-0.9567,-0.9568,-0.9568,0,-0.9064,-0.9118,-0.9112,-0.9158,-0.923,-0.9293,-0.9291,-0.9382,-0.9419,-0.9434,-0.9521,-0.9539,-0.9593,-0.9637,-0.9666,-0.9571,-0.9636,-0.958,-0.9497,-0.9486,-0.9471,-0.9459,-0.9422,-0.9408,-0.9574,-0.9574,-0.9573,0,-0.917,-0.9237,-0.9245,-0.9319,-0.9368,-0.9386,-0.9483,-0.95,-0.9514,-0.9632,-0.9645,-0.9695,-0.9763,-0.9757,-0.9758,-0.9796,-0.972,-0.9763,-0.9751,-0.9753,-0.9747,-0.9729,-0.9714,-0.9913,-0.9914,-0.9915,0,0,-0.9233,-0.9255,-0.9357,-0.9345,-0.9369,-0.9464,-0.9485,-0.9546,-0.9606,-0.9629,-0.9696,-0.975,-0.9782,-0.9801,-0.9837,-0.9819,-0.9839,-0.9801,-0.9785,-0.9771,-0.9765,-0.9755,-0.9738,-0.9918,-0.9918,-0.9918,0,0,-0.9264,-0.9382,-0.9431,-0.9428,-0.9482,-0.9583,-0.9571,-0.9633,-0.9675,-0.9685,-0.9789,-0.9809,-0.9806,-0.9853,-0.9882,-0.9863,-0.9933,-0.9928,-0.9833,-0.9814,-0.9799,-0.9787,-0.9992,0,0,0,0,0,-0.9402,-0.9368,-0.9411,-0.9424,-0.952,-0.9558,-0.9571,-0.9657,-0.9703,-0.9691,-0.9756,-0.9826,-0.9889,-0.9918,-0.9929,-0.9895,-0.9957,-0.995,-0.9944,-0.9818,-0.9797,-0.978,0,0,0,0,0,0,-0.9408,-0.9424,-0.9412,-0.951,-0.9532,-0.9561,-0.9657,-0.968,-0.9706,-0.9719,-0.9811,-0.9829,-0.9903,-0.9918,-0.9927,-0.9893,-0.9989,-0.9954,-0.9948,-0.9943,-0.9811,-0.9794,-0.9779,0,0,0,0,0,-0.9413,-0.9426,-0.9557,-0.9511,-0.953,-0.9636,-0.9659,-0.9679,-0.9701,-0.9804,-0.9824,-0.9763,-0.99,-0.9913,-0.9924,-0.9887,-0.9983,-0.9986,-0.995,-0.9946,-0.9942,-0.9803,0,0,0,0,0,0,-0.9417,-0.9444,-0.9563,-0.9572,-0.9531,-0.9636,-0.9656,-0.9677,-0.9786,-0.9805,-0.9761,-0.977,-0.9897,-0.9908,-0.9918,-0.9879,-0.9979,-0.9982,-0.9984,-0.9947,-0.9943,-0.994,0,0,0,0,0,0,-0.9438,-0.9451,-0.9568,-0.9588,-0.9601,-0.9636,-0.9653,-0.9676,-0.9786,-0.9737,-0.9748,-0.9764,-0.9882,-0.9904,-0.9912,-0.9944,-0.9975,-0.9978,-0.998,-0.9981,-0.9944,-0.9941,0,0,0,0,0,0,-0.9445,-0.9456,-0.9587,-0.9596,-0.9607,-0.9715,-0.9657,-0.975,-0.9803,-0.9731,-0.981,-0.9814,-0.9876,-0.9886,-0.9908,-0.9935,-0.9942,-0.9975,-0.9977,-0.9979,-0.998,0,0,0,0,0,0,0,-0.9451,-0.9354,-0.9509,-0.9602,-0.9612,-0.9656,-0.9658,-0.9661,-0.9804,-0.9807,-0.981,-0.9812,-0.9958,-0.9962,-0.9965,-0.9928,0,0,-0.9975,-0.9976,0,0,0,0,0,0,0,0,-0.9351,-0.9353,-0.9509,-0.9511,-0.9513,-0.9656,-0.9658,-0.966,-0.9804,-0.9807,-0.9809,-0.9811,-0.9959,-0.9962,-0.9964,0,0,0,0,0,0,0,0,0,0,0,0,0,0,0,-0.9509,-0.9511,0,-0.9656,-0.9658,-0.966,-0.9805,-0.9807,-0.9808,-0.981,-0.996,-0.9962,-0.9964,0,0,0,0,0,0,0,0,0,0,0,0,0,0,0,0,0,0,0,0,0,0,0,0,0,0,0,0,0,0,0,0,0,0,0,0,0,0,0,0,0,0,0,0,0,0,0,0,0,0,0,0,0,0,0,0,0,0,0,0,0,0,0,0,0,0,0,0,0]}]]]